Simultaneous Nadir Overpasses (SNOs) Predictions

Prediction of SNOs between AQUA and METOP-A Satellite Orbit:

Table of predicted SNOs for the next 14.0 days since TLE Epoch: 2/22/2013
Index Date (AQUA) Time (AQUA) Lat,Lon (AQUA) SZA (AQUA ) Date (METOP-A) Time (METOP-A) Lat,Lon (METOP-A) SZA (METOP-A ) Distance(km) Time Diff (sec)
1 02/23/2013 17:09:45 73.22, -82.00 82.87 02/23/2013 17:08:40 73.18, -84.87 82.98 92.35 65
2 02/23/2013 17:59:24 -73.92, 84.15 96.39 02/23/2013 17:59:07 -73.94, 84.19 96.37 2.41 17
3 02/23/2013 18:48:53 74.00,-108.39 83.69 02/23/2013 18:49:45 74.01,-108.31 83.68 2.55 52
4 02/26/2013 12:44:03 73.21, -15.55 81.81 02/26/2013 12:42:58 73.17, -18.48 81.92 94.58 65
5 02/26/2013 13:33:42 -73.91, 150.61 97.46 02/26/2013 13:33:25 -73.93, 150.58 97.43 2.88 17
6 02/26/2013 14:23:11 73.99, -41.93 82.62 02/26/2013 14:24:03 73.99, -41.93 82.62 0.67 52
7 03/01/2013 09:08:00 -73.90,-142.95 98.53 03/01/2013 09:07:42 -73.90,-143.07 98.52 3.53 18
8 03/01/2013 09:57:29 73.99, 24.50 81.55 03/01/2013 09:58:19 74.01, 24.53 81.56 2.60 50
9 03/04/2013 04:42:17 -73.91, -76.55 99.60 03/04/2013 04:41:56 -73.90, -76.64 99.61 3.11 21
10 03/04/2013 05:31:46 74.00, 90.90 80.48 03/04/2013 05:32:33 74.01, 90.95 80.48 1.82 47
11 03/07/2013 00:16:35 -73.94, -10.17 100.67 03/07/2013 00:16:09 -73.93, -10.13 100.67 1.35 26
12 03/07/2013 01:06:03 73.98, 157.38 79.36 03/07/2013 01:06:47 73.98, 157.33 79.36 1.78 44




NCC Satellite Simultaneous Nadir Overpasses (SNOs) Prediction Service
